EW2244 Weather Reports


time (UTC)temp
C
wind
direction
speed
KPH
gust
KPH
rain 1hr
cm
rain 24hr
cm
rain mn
cm
humidity
%
barometer
mb
20260507235125 13 134 1.6 6.4 0.00 0.89 0.00 78 1014.9
20260507234133 13 136 1.6 6.4 0.00 0.89 0.00 79 1014.9
20260507233121 12 153 1.6 3.2 0.00 0.89 0.00 80 1014.9
20260507232135 12 153 0.0 4.8 0.00 0.89 0.00 80 1014.9
20260507231123 12 155 0.0 4.8 0.00 0.89 0.00 82 1014.9
20260507230132 12 155 0.0 4.8 0.00 0.89 0.00 85 1015.0
20260507225120 11 155 1.6 4.8 0.00 5.89 0.00 87 1015.0
20260507224133 12 155 1.6 6.4 0.00 5.89 0.00 86 1015.0
20260507223119 12 155 0.0 4.8 0.00 5.89 0.00 86 1015.0
20260507222148 12 154 1.6 4.8 0.00 5.89 0.00 85 1015.0
20260507221131 12 154 1.6 8.0 0.00 5.89 0.00 84 1015.0
20260507220120 12 151 0.0 1.6 0.00 5.89 0.00 83 1014.9
20260507215127 13 151 0.0 0.0 0.00 8.51 1.50 82 1014.8
20260507214156 13 151 0.0 1.6 0.00 8.51 1.50 79 1014.7
20260507213118 14 151 0.0 3.2 0.00 8.51 1.50 77 1014.6
20260507212130 14 163 0.0 4.8 0.00 8.51 1.50 76 1014.5
20260507211132 13 171 0.0 4.8 0.00 8.51 1.50 78 1014.6
20260507210139 13 171 0.0 4.8 0.00 8.51 1.50 82 1014.5
20260507205126 13 172 1.6 4.8 0.00 8.61 1.50 84 1014.6
20260507204118 13 172 1.6 3.2 0.00 8.61 1.50 84 1014.5
20260507203124 13 172 0.0 1.6 0.00 8.61 1.50 84 1014.4
20260507202129 13 172 0.0 1.6 0.00 8.61 1.50 84 1014.5
20260507201152 13 172 0.0 3.2 0.00 8.61 1.50 85 1014.4
20260507200129 13 172 1.6 4.8 0.00 8.61 1.50 84 1014.2
20260507195120 13 172 1.6 3.2 0.00 9.50 1.50 84 1014.1
20260507194121 13 172 1.6 6.4 0.00 9.50 1.50 84 1013.9
20260507193127 14 171 1.6 4.8 0.00 9.50 1.50 82 1013.7
20260507192123 15 171 0.0 1.6 0.00 9.50 1.50 80 1013.5
20260507191153 15 171 1.6 4.8 0.00 9.50 1.50 79 1013.4
20260507190119 15 171 0.0 1.6 0.00 9.50 1.50 79 1013.3
20260507185126 15 171 0.0 3.2 0.00 9.50 1.50 79 1013.2
20260507184132 16 171 1.6 3.2 0.00 9.50 1.50 77 1013.2
20260507183159 16 171 0.0 3.2 0.00 9.50 1.50 76 1013.1
20260507182128 16 171 0.0 4.8 0.00 9.50 1.50 73 1013.1
20260507181134 16 171 1.6 6.4 0.00 9.50 1.50 76 1013.0
20260507180120 16 171 0.0 3.2 0.00 9.50 1.50 72 1012.9
20260507175145 17 171 1.6 3.2 0.00 9.50 1.50 70 1012.8
20260507174117 17 171 0.0 4.8 0.00 9.50 1.50 67 1012.7
20260507173124 17 171 0.0 1.6 0.00 9.50 1.50 66 1012.6
20260507172132 18 171 0.0 1.6 0.00 9.50 1.50 63 1012.5
20260507171118 18 171 0.0 3.2 0.00 9.50 1.50 56 1012.5
20260507170130 18 171 0.0 3.2 0.00 9.50 1.50 53 1012.4
20260507165135 20 171 1.6 3.2 0.00 9.50 1.50 50 1012.4
20260507164142 20 171 0.0 4.8 0.00 9.50 1.50 48 1012.4
20260507163147 20 168 1.6 4.8 0.00 9.50 1.50 51 1012.4
20260507162118 20 157 1.6 8.0 0.00 9.50 1.50 49 1012.4
20260507161126 20 172 0.0 4.8 0.00 9.50 1.50 49 1012.3
20260507160136 20 171 1.6 4.8 0.00 9.50 1.50 47 1012.3
20260507155121 20 161 1.6 6.4 0.00 9.50 1.50 47 1012.3
20260507154154 20 221 1.6 6.4 0.00 9.50 1.50 46 1012.3
20260507153117 21 179 1.6 8.0 0.00 9.50 1.50 48 1012.3
20260507152127 20 132 1.6 6.4 0.00 9.50 1.50 51 1012.4
20260507151131 20 252 1.6 6.4 0.00 9.50 1.50 51 1012.3
20260507150135 20 268 1.6 4.8 0.00 9.50 1.50 54 1012.4
20260507145143 20 290 4.8 8.0 0.00 9.50 1.50 52 1012.5
20260507144130 19 175 1.6 6.4 0.00 9.50 1.50 55 1012.5
20260507143117 19 38 0.0 6.4 0.00 9.50 1.50 56 1012.6
20260507142129 18 38 1.6 6.4 0.00 9.50 1.50 57 1012.6
20260507141139 18 22 1.6 6.4 0.00 9.50 1.50 64 1012.7
20260507140141 18 225 1.6 4.8 0.20 9.50 1.50 63 1012.8
20260507135127 17 223 0.0 4.8 0.20 9.50 1.50 66 1012.9
20260507134118 17 223 0.0 4.8 0.20 9.50 1.50 69 1013.0
20260507133127 16 223 0.0 6.4 0.20 9.50 1.50 79 1013.1
20260507132135 16 219 1.6 6.4 0.20 9.50 1.50 82 1013.2
20260507131123 16 62 0.0 4.8 0.20 9.50 1.50 73 1013.2
20260507130132 16 74 1.6 4.8 0.00 9.30 1.45 70 1013.3
20260507125118 17 69 1.6 6.4 0.00 9.30 1.45 68 1013.3
20260507124127 17 30 1.6 12.9 0.00 9.30 1.45 67 1013.2
20260507123135 18 344 3.2 6.4 0.00 9.30 1.45 62 1013.3
20260507122126 18 344 1.6 4.8 0.00 9.30 1.45 60 1013.2
20260507121135 18 269 3.2 6.4 0.00 9.30 1.45 58 1013.3
20260507120123 18 107 1.6 6.4 0.00 9.30 1.45 57 1013.3
20260507115130 20 204 1.6 6.4 0.00 16.21 1.45 56 1013.5
20260507114122 20 82 1.6 9.7 0.00 16.21 1.45 62 1013.4
20260507113130 20 110 3.2 8.0 0.00 16.21 1.45 56 1013.5
20260507112118 20 78 1.6 9.7 0.00 16.21 1.45 60 1013.6
20260507111126 19 168 3.2 9.7 0.00 16.21 1.45 58 1013.5
20260507110117 19 160 3.2 11.3 0.00 16.21 1.45 56 1013.7
20260507105125 18 87 3.2 12.9 0.00 17.70 1.45 61 1013.9
20260507104132 18 100 1.6 8.0 0.00 17.70 1.45 63 1013.9
20260507103122 18 147 3.2 9.7 0.00 17.70 1.45 61 1013.9
20260507102130 18 92 3.2 8.0 0.00 17.70 1.45 66 1013.9
20260507101135 18 103 1.6 6.4 0.00 17.70 1.45 62 1014.0
20260507100119 18 74 4.8 12.9 0.00 17.70 1.45 61 1014.1
20260507095130 18 25 3.2 9.7 0.00 17.70 1.45 70 1014.0
20260507094138 18 212 1.6 9.7 0.00 17.70 1.45 67 1014.1
20260507093126 17 83 0.0 8.0 0.00 17.70 1.45 63 1014.1
20260507092132 17 90 1.6 6.4 0.00 17.70 1.45 67 1013.9
20260507091125 17 60 3.2 8.0 0.00 17.70 1.45 66 1013.9
20260507090133 17 48 3.2 6.4 0.00 17.70 1.45 72 1013.9
20260507085121 17 186 1.6 3.2 0.00 17.70 1.45 72 1013.9
20260507084128 17 186 1.6 4.8 0.00 17.70 1.45 68 1013.9
20260507083140 16 184 1.6 9.7 0.00 17.70 1.45 74 1013.8
20260507082144 16 104 3.2 9.7 0.00 17.70 1.45 70 1013.8
20260507081131 16 107 1.6 4.8 0.00 17.70 1.45 72 1013.8
20260507080118 16 34 1.6 6.4 0.00 17.70 1.45 76 1013.7
20260507075147 15 32 1.6 6.4 0.00 18.11 1.45 71 1013.7
20260507074138 15 48 3.2 8.0 0.00 18.11 1.45 75 1013.7
20260507073124 15 34 1.6 9.7 0.00 18.11 1.45 77 1013.7
20260507072132 15 34 4.8 8.0 0.00 18.11 1.45 76 1013.7
20260507071123 14 32 3.2 9.7 0.00 18.11 1.45 81 1013.7
20260507070130 13 46 3.2 8.0 0.00 18.11 1.45 83 1013.6
20260507065140 13 51 1.6 8.0 0.00 18.11 1.45 83 1013.4
20260507064126 13 36 3.2 8.0 0.00 18.11 1.45 82 1013.3
20260507063137 13 53 3.2 8.0 0.00 18.11 1.45 84 1013.3
20260507062125 12 44 0.0 4.8 0.00 18.11 1.45 86 1013.3
20260507061132 12 360 4.8 12.9 0.00 18.11 1.45 86 1013.1
20260507060140 11 17 1.6 12.9 0.00 18.11 1.45 88 1013.1
20260507055131 11 29 1.6 9.7 0.00 18.69 1.45 89 1013.1
20260507054119 11 38 3.2 8.0 0.00 18.69 1.45 91 1013.0
20260507053127 11 24 3.2 11.3 0.00 18.69 1.45 91 1012.9
20260507052132 10 41 3.2 12.9 0.00 18.69 1.45 91 1012.8
20260507051124 10 81 1.6 16.1 0.00 18.69 1.45 91 1012.7
20260507050133 10 28 1.6 14.5 0.00 18.69 1.45 91 1012.5
20260507045139 10 24 1.6 8.0 0.00 19.20 1.45 91 1012.5
20260507044127 10 13 3.2 14.5 0.00 19.20 1.45 91 1012.3
20260507043118 10 51 3.2 12.9 0.00 19.20 1.45 92 1012.2
20260507042125 10 350 1.6 6.4 0.00 19.20 1.45 92 1012.1
20260507041133 10 56 1.6 14.5 0.00 19.20 1.45 93 1012.1
20260507040121 10 29 3.2 12.9 0.00 19.20 1.45 93 1012.1
20260507035132 10 54 3.2 16.1 0.00 19.41 1.45 94 1012.1
20260507034138 10 32 3.2 8.0 0.00 19.41 1.45 93 1012.1
20260507033145 10 42 1.6 9.7 0.00 19.41 1.45 93 1012.0
20260507032130 10 350 1.6 9.7 0.00 19.41 1.45 93 1012.1
20260507031120 10 36 3.2 8.0 0.00 19.41 1.45 93 1012.1
20260507030129 10 36 1.6 8.0 0.00 19.41 1.45 93 1012.0
20260507025138 10 36 0.0 6.4 0.00 19.81 1.45 93 1011.9
20260507024125 10 32 1.6 6.4 0.00 19.81 1.45 93 1011.9
20260507023119 10 27 1.6 8.0 0.00 19.81 1.45 94 1012.1
20260507022122 11 355 1.6 9.7 0.00 19.81 1.45 94 1012.0
20260507021131 11 33 1.6 6.4 0.10 19.81 1.45 94 1012.1
20260507020122 11 32 3.2 8.0 0.30 19.81 1.45 93 1012.0
20260507015130 11 77 1.6 8.0 0.41 19.81 1.45 93 1011.9
20260507014135 11 132 1.6 8.0 0.41 19.81 1.45 94 1011.9
20260507013120 11 34 0.0 4.8 0.41 19.81 1.45 94 1012.0
20260507012130 11 39 1.6 8.0 0.41 19.81 1.45 94 1011.9
20260507011159 11 82 0.0 8.0 0.30 19.71 1.42 93 1011.8
20260507010124 11 338 1.6 3.2 0.10 19.51 1.37 94 1011.7
20260507005133 11 339 1.6 6.4 0.00 19.41 1.35 94 1011.7
20260507004125 11 5 1.6 6.4 0.00 19.41 1.35 94 1011.8
20260507003131 11 28 1.6 4.8 0.00 19.41 1.35 94 1011.8
20260507002156 11 33 1.6 12.9 0.00 19.41 1.35 93 1011.8
20260507001141 11 51 1.6 3.2 0.00 19.41 1.35 94 1011.8
20260507000127 11 355 0.0 8.0 0.10 19.41 1.35 94 1011.7
20260506235138 11 221 0.0 8.0 0.51 19.41 1.35 94 1011.7